Location: Unspecified
(0.0000°N, 0.0000°E)
Time: 17:50:14
(UTC+00:00)

Explorer 7 - Pass Details

Date: 23 July 2019
Orbit: 485 x 680 km, 50.3° (Epoch: 06 December)

Event Time Altitude Azimuth Distance (km) Brightness Sun altitude
Rises 04:49:20 0° 355° (N) 2,701 10.6 -18.1°
Reaches altitude 10° 04:52:28 10° 21° (NNE) 1,857 10.1 -17.3°
Maximum altitude 04:54:43 14° 54° (NE) 1,641 10.3 -16.8°
Drops below altitude 10° 04:57:04 10° 86° (E) 1,929 10.8 -16.3°
Sets 05:00:24 0° 111° (ESE) 2,883 11.3 -15.5°
